Regional Weather Roundup
Issued by NWS Raleigh/Durham, NC

Home | Current Version | Previous Version | Text Only | Print | Product List | Glossary On
Versions: 1 2 3 4 5 6 7 8 9 10 11 12 13 14 15 16 17 18 19 20 21 22 23 24 25 26 27 28 29 30 31 32 33 34 35 36 37 38 39 40 41 42 43 44 45 46 47 48 49 50
000
ASUS42 KRAH 290810
RWRRAH
NORTH CAROLINA WEATHER ROUNDUP
NATIONAL WEATHER SERVICE RALEIGH NC
300 AM EST SAT NOV 29 2014

NOTE: "FAIR" INDICATES FEW OR NO CLOUDS BELOW 12,000 FEET WITH NO
SIGNIFICANT WEATHER AND/OR OBSTRUCTIONS TO VISIBILITY.

NCZ001-053-055-056-065-067-290900-
WESTERN NORTH CAROLINA

CITY           SKY/WX    TMP DP  RH WIND       PRES   REMARKS
ASHEVILLE      PTCLDY    28  23  81 CALM      30.20F
JEFFERSON      CLEAR     29  14  53 CALM      30.15S
MORGANTON      PTCLDY    26  26  97 CALM      30.28S
HICKORY        PTCLDY    31  24  75 CALM      30.23S
RUTHERFORDTON  PTCLDY    28  24  86 CALM      30.24F
MOUNT AIRY     PTCLDY    28  24  85 CALM      30.25S
BOONE          PTCLDY    24  21  87 CALM      30.16S
$$

NCZ021-022-025-041-071-084-088-290900-
CENTRAL NORTH CAROLINA

CITY           SKY/WX    TMP DP  RH WIND       PRES   REMARKS
CHARLOTTE      MOCLDY    33  23  66 SE3       30.27F
GREENSBORO     CLEAR     30  23  75 S5        30.24F WCI  25
WINSTON-SALEM  PTCLDY    29  22  75 S3        30.25F
RALEIGH-DURHAM PTCLDY    29  22  75 CALM      30.29F
FORT BRAGG     PTCLDY    31  28  88 CALM      30.31R
FAYETTEVILLE   PTCLDY    30  27  88 CALM      30.32R
BURLINGTON     CLEAR     26  21  81 CALM      30.28R
LAURINBURG     PTCLDY    30  28  92 CALM      30.32S
$$

NCZ011-015-027-028-043-044-047-080-103-290900-
NORTHEASTERN NORTH CAROLINA

CITY           SKY/WX    TMP DP  RH WIND       PRES   REMARKS
ROCKY MT-WILSO CLEAR     28  25  88 CALM      30.32S
GREENVILLE     CLEAR     30  30 100 CALM      30.34R
WASHINGTON     CLEAR     28  26  93 CALM      30.34S
ELIZABETH CITY CLEAR     31  26  82 CALM      30.34R
MANTEO         CLEAR     29  27  90 CALM      30.34S
CAPE HATTERAS  CLEAR     36  27  69 NW5       30.34R WCI  32
$$

NCZ078-087-090-091-093-098-101-290900-
SOUTHEASTERN NORTH CAROLINA

CITY           SKY/WX    TMP DP  RH WIND       PRES   REMARKS
LUMBERTON      PTCLDY    30  27  88 CALM      30.32S FOG
GOLDSBORO      PTCLDY    28  28  97 CALM      30.31S
KINSTON        PTCLDY    28  27  96 CALM      30.34R
KENANSVILLE    CLEAR     27  27  99 CALM      30.34S
NEW BERN       CLEAR     30  26  85 CALM      30.35R
CHERRY POINT   PTCLDY    29  27  92 CALM      30.35R
BEAUFORT       CLEAR     31  28  89 CALM      30.34S
JACKSONVILLE   CLEAR     29  27  92 W3        30.34R
WILMINGTON     CLEAR     31  29  92 CALM      30.33S
$$



USA.gov is the U.S. government's official web portal to all federal, state and local government web resources and services.